Date,TemperatureHighF,TemperatureAvgF,TemperatureLowF,DewpointHighF,DewpointAvgF,DewpointLowF,HumidityHigh,HumidityAvg,HumidityLow,PressureMaxIn,PressureMinIn,WindSpeedMaxMPH,WindSpeedAvgMPH,GustSpeedMaxMPH,PrecipitationSumIn
2013-1-1,23.7,15.8,8.4,16.5,10.5,6.1,90,80,62,30.06,29.91,6,1,0,0.00
2013-1-2,28.6,17.8,7.9,17.1,11.2,5.1,90,76,56,30.01,29.89,9,3,0,0.00
2013-1-3,32.5,24.5,13.3,25.8,19.7,10.9,92,82,65,30.13,29.91,8,2,0,0.00
2013-1-4,34.5,22.7,10.6,23.6,17.3,8.5,91,80,64,30.12,30.02,9,3,0,0.00
2013-1-5,36.0,30.6,23.2,33.2,26.9,19.6,97,86,71,30.03,29.75,9,4,0,0.02
2013-1-6,35.1,25.5,19.2,32.5,21.3,15.4,90,84,72,30.13,29.74,9,2,0,0.00
2013-1-7,39.6,29.2,20.1,29.2,23.8,17.9,92,81,63,30.13,29.89,14,5,0,0.00
2013-1-8,45.5,35.9,29.7,33.9,28.8,24.9,86,76,61,29.93,29.83,9,4,0,0.00
2013-1-9,49.8,38.9,31.6,35.6,30.6,25.4,90,73,44,30.29,29.84,9,2,0,0.00
2013-1-10,49.8,36.1,28.2,49.5,31.3,22.6,99,83,63,30.27,29.56,7,2,0,0.91
2013-1-11,56.8,51.1,46.2,52.6,48.8,45.9,99,92,78,29.57,29.45,10,5,0,0.64
2013-1-12,52.0,40.3,25.0,47.7,35.2,23.3,96,82,70,29.77,29.49,11,3,0,0.00
2013-1-13,24.6,19.7,12.7,23.1,16.9,9.6,96,89,82,30.05,29.69,11,3,0,0.00
2013-1-14,25.2,16.1,9.9,16.5,12.1,8.5,94,85,66,30.25,30.21,5,1,0,0.00
2013-1-15,28.6,18.5,9.9,19.0,14.4,8.3,98,85,64,30.22,29.91,5,0,0,0.00
2013-1-16,35.8,27.2,14.0,28.1,20.3,12.5,99,76,62,29.91,29.67,9,3,0,0.00
2013-1-17,34.7,27.6,21.9,29.5,21.6,16.8,99,79,57,30.22,29.87,8,2,0,0.00
2013-1-18,44.8,34.3,21.7,32.6,25.4,17.1,82,70,61,30.23,29.76,14,6,0,0.10
2013-1-19,52.5,41.9,29.3,38.3,32.0,19.7,77,68,58,29.84,29.57,14,6,0,0.00
2013-1-20,28.6,18.0,12.6,17.6,9.6,5.9,87,70,54,30.12,29.87,9,3,0,0.00
2013-1-21,14.5,8.2,2.7,10.2,0.2,-4.7,87,70,46,30.14,30.00,10,4,0,0.00
2013-1-22,15.8,7.3,-0.4,2.2,-1.9,-6.3,84,66,46,30.22,30.12,8,2,0,0.00
2013-1-23,33.4,19.8,10.8,17.1,8.5,1.7,76,61,46,30.15,29.88,10,2,0,0.00
2013-1-24,22.5,15.0,5.2,10.0,3.8,-3.1,83,61,48,30.43,30.08,8,2,0,0.00
2013-1-25,37.0,26.1,18.3,20.5,15.1,7.2,81,63,47,30.08,29.79,6,2,0,0.00
2013-1-26,30.9,20.4,8.8,16.8,10.7,5.5,88,67,45,30.19,30.01,6,1,0,0.00
2013-1-27,43.5,32.0,26.2,43.2,27.5,17.0,99,84,67,30.13,29.67,7,3,0,0.18
2013-1-28,56.8,49.3,43.9,56.5,48.8,43.6,99,99,92,29.71,29.55,11,3,0,0.02
2013-1-29,64.4,56.8,50.9,60.1,55.9,50.6,99,97,86,29.53,29.15,12,4,0,2.08
2013-1-30,50.9,31.5,17.1,50.6,30.2,13.1,99,95,84,29.55,29.03,16,4,0,0.32
2013-1-31,20.3,13.8,2.8,18.2,9.5,-1.7,92,83,70,30.07,29.55,9,4,0,0.00
2013-2-1,19.9,9.8,0.0,17.5,2.9,-3.9,94,74,58,30.21,29.95,11,4,0,0.00
2013-2-2,28.9,20.4,13.1,24.7,16.7,9.2,95,85,76,29.95,29.80,8,3,0,0.00
2013-2-3,30.0,22.5,15.6,20.6,16.8,12.2,98,79,56,29.88,29.75,11,2,0,0.00
2013-2-4,36.7,27.4,15.8,27.2,21.2,14.6,95,77,67,29.76,29.56,7,2,0,0.00
2013-2-5,40.5,29.0,14.9,32.2,24.9,14.0,97,85,70,29.87,29.60,9,2,0,0.03
2013-2-6,45.5,34.2,22.5,33.2,28.7,22.3,99,81,62,29.98,29.83,7,2,0,0.00
2013-2-7,37.2,35.1,31.8,36.7,33.6,30.3,99,94,80,29.82,29.62,6,2,0,0.64
2013-2-8,31.5,27.5,24.4,30.5,24.1,21.6,97,87,79,30.17,29.80,10,2,0,0.00
2013-2-9,36.5,31.1,26.1,30.7,26.5,23.0,88,83,73,30.16,29.80,6,2,0,0.00
2013-2-10,48.6,41.8,35.1,47.2,39.2,30.5,99,91,64,29.82,29.26,14,6,0,0.57
2013-2-11,41.0,33.2,28.2,32.3,25.3,23.1,82,72,64,29.88,29.36,16,5,0,0.00
2013-2-12,39.7,30.5,24.1,27.9,24.6,22.2,93,79,60,29.92,29.70,6,1,0,0.00
2013-2-13,47.5,35.5,26.6,33.7,28.9,24.8,94,78,55,29.69,29.52,7,2,0,0.00
2013-2-14,42.4,36.9,31.5,32.0,30.6,28.5,92,78,66,29.79,29.47,11,3,0,0.00
2013-2-15,34.9,27.0,18.0,30.1,17.9,13.3,91,70,41,30.01,29.79,8,2,0,0.00
2013-2-16,29.5,19.3,10.6,14.1,10.9,6.5,87,70,49,30.00,29.91,11,2,0,0.00
2013-2-17,37.2,24.5,10.9,23.0,14.6,5.4,81,66,50,29.98,29.68,6,2,0,0.00
2013-2-18,52.5,39.8,23.0,46.2,33.4,20.4,99,78,65,29.67,29.22,14,6,0,0.37
2013-2-19,23.9,17.9,11.8,19.9,11.8,6.8,89,77,65,30.03,29.53,11,5,0,0.00
2013-2-20,23.7,13.6,3.7,13.9,7.8,-0.1,88,78,58,30.19,30.04,9,2,0,0.00
2013-2-21,28.2,21.8,11.5,25.0,18.7,10.1,98,88,78,30.14,29.65,13,5,0,0.00
2013-2-22,33.3,28.2,24.8,32.3,26.6,22.0,99,93,85,29.75,29.54,9,3,0,0.00
2013-2-23,33.1,25.3,20.3,23.0,19.8,16.8,89,80,65,29.77,29.72,5,1,0,0.00
2013-2-24,40.6,27.8,16.2,26.2,21.4,14.5,94,78,54,29.90,29.77,5,0,0,0.13
2013-2-25,43.2,33.6,24.3,33.7,28.5,23.6,99,82,67,29.90,29.63,14,3,0,0.14
2013-2-26,34.5,32.0,30.6,32.0,30.9,27.6,99,96,77,29.62,29.23,14,5,0,0.00
2013-2-27,34.3,31.3,28.8,33.0,30.8,28.6,99,98,94,29.56,29.33,4,0,0,0.01
2013-2-28,35.6,31.9,29.8,33.3,31.0,29.1,99,97,87,29.85,29.56,6,0,0,0.10
2013-3-1,33.1,27.1,23.5,28.8,23.0,19.9,96,85,70,30.00,29.84,8,3,0,0.00
2013-3-2,32.9,22.3,12.9,20.2,16.0,10.5,91,77,54,30.02,29.96,8,2,0,0.00
2013-3-3,37.8,22.9,9.1,17.1,13.3,8.2,96,70,38,29.97,29.84,3,0,0,0.16
2013-3-4,37.9,30.7,24.3,28.8,24.4,15.2,89,77,67,29.87,29.67,11,4,0,0.09
2013-3-5,33.4,30.6,25.9,32.4,29.6,25.7,99,96,84,29.84,29.60,7,2,0,0.00
2013-3-6,32.4,26.8,23.0,25.7,23.4,21.4,99,87,74,30.13,29.84,8,2,0,0.00
2013-3-7,44.4,29.8,23.7,27.6,24.1,21.5,94,80,51,30.20,30.12,6,0,0,0.34
2013-3-8,44.6,33.6,22.1,33.7,28.6,21.9,99,83,65,30.23,30.01,9,1,0,0.34
2013-3-9,50.2,41.6,35.6,41.6,36.1,30.6,93,81,66,30.01,29.54,8,3,0,0.32
2013-3-10,52.5,48.2,42.3,51.3,47.3,41.8,99,97,84,29.58,29.36,10,2,0,1.29
2013-3-11,46.2,35.4,29.7,45.9,34.2,26.4,99,95,87,29.67,29.37,8,3,0,0.05
2013-3-12,39.9,30.3,23.7,32.3,25.2,18.9,94,82,64,29.90,29.67,11,3,0,0.01
2013-3-13,37.9,27.5,20.7,22.9,19.2,16.0,88,72,42,30.15,29.89,10,3,0,0.01
2013-3-14,45.5,32.2,20.8,30.7,24.4,17.8,89,74,52,30.14,29.85,6,1,0,0.00
2013-3-15,54.3,42.3,30.9,41.8,35.0,28.5,91,77,55,29.84,29.44,6,2,0,0.00
2013-3-16,42.4,35.3,29.5,40.2,31.5,25.3,99,87,65,29.89,29.42,7,2,0,0.00
2013-3-17,36.5,31.7,28.2,28.1,25.2,22.1,85,77,66,29.94,29.68,13,4,0,0.00
2013-3-18,38.8,31.3,24.1,35.6,27.9,15.8,99,87,70,29.69,29.45,17,5,0,0.10
2013-3-19,41.5,27.5,17.8,19.0,15.0,10.0,77,60,35,29.93,29.68,9,4,0,0.00
2013-3-20,32.2,22.7,14.0,19.8,10.3,5.1,78,60,39,29.98,29.87,16,4,0,0.00
2013-3-21,37.4,22.9,9.5,14.8,11.0,7.2,91,62,36,29.89,29.77,6,1,0,0.00
2013-3-22,47.3,31.5,18.3,23.6,18.1,14.2,93,61,31,29.85,29.76,7,1,0,0.00
2013-3-23,47.7,36.8,28.4,26.5,24.2,21.9,78,61,42,29.88,29.72,9,2,0,0.00
2013-3-24,32.4,30.1,28.4,31.4,28.9,24.2,99,95,72,29.76,29.41,8,3,0,0.00
2013-3-25,41.2,31.0,25.7,30.7,27.3,24.9,99,87,66,29.90,29.54,10,2,0,0.34
2013-3-26,40.3,34.2,29.5,28.2,26.7,25.6,85,74,58,30.08,29.91,8,1,0,0.17
2013-3-27,46.6,36.0,26.1,28.4,25.2,22.1,93,66,43,30.14,30.07,7,0,0,0.02
2013-3-28,52.9,39.4,25.5,32.6,27.5,21.8,86,64,43,30.16,30.04,6,0,0,0.00
2013-3-29,59.4,45.5,34.0,33.1,31.2,28.3,86,60,36,30.09,29.97,6,1,0,0.00
2013-3-30,56.7,47.1,34.2,42.5,37.5,30.4,94,71,55,30.00,29.65,9,2,0,0.00
2013-3-31,61.9,50.1,38.5,45.4,39.0,27.8,93,68,39,29.72,29.55,11,2,0,0.00
2013-4-1,45.5,35.6,27.0,27.1,21.2,17.5,83,58,35,30.01,29.73,12,3,0,0.00
2013-4-2,50.0,33.8,21.0,23.0,17.8,13.3,85,56,24,30.11,30.01,9,1,0,0.00
2013-4-3,52.2,37.6,25.5,21.2,17.9,14.9,70,48,23,30.23,30.07,7,1,0,0.00
2013-4-4,62.1,45.2,26.8,26.5,23.1,20.0,80,45,24,30.07,29.77,5,0,0,0.00
2013-4-5,60.4,47.7,35.8,33.8,28.6,23.3,76,51,26,29.99,29.80,8,2,0,0.00
2013-4-6,70.2,56.7,41.0,49.4,35.9,23.5,73,47,33,29.84,29.40,16,6,0,0.01
2013-4-7,69.4,55.4,40.5,46.9,43.2,39.8,99,66,41,29.72,29.47,6,1,0,0.00
2013-4-8,78.8,64.2,54.1,58.0,54.5,41.1,99,72,46,29.63,29.38,13,2,0,0.68
2013-4-9,79.5,66.1,50.5,62.4,57.6,46.7,95,76,53,29.63,29.52,10,2,0,0.00
2013-4-10,49.8,43.9,39.2,46.5,43.1,38.7,99,97,88,29.69,29.51,16,5,0,2.32
2013-4-11,50.7,43.8,37.0,48.8,41.9,31.4,99,93,80,29.48,29.37,9,2,0,0.11
2013-4-12,43.2,38.6,36.1,37.3,33.8,31.3,94,83,72,29.69,29.39,9,2,0,0.00
2013-4-13,55.6,44.4,34.7,35.6,32.4,26.9,86,64,44,29.77,29.68,10,1,0,0.00
2013-4-14,77.9,59.8,42.6,53.3,44.9,35.6,85,60,37,29.72,29.35,12,3,0,0.00
2013-4-15,64.6,54.1,43.2,55.5,50.4,41.9,99,88,61,29.77,29.42,10,2,0,0.50
2013-4-16,55.9,47.5,39.9,42.2,39.9,37.7,99,77,55,29.97,29.71,6,1,0,0.33
2013-4-17,56.8,47.4,43.0,56.5,43.9,35.9,99,88,72,29.99,29.47,12,5,0,3.48
2013-4-18,61.2,52.1,37.9,60.9,51.1,33.5,99,96,84,29.48,29.18,13,5,0,2.19
2013-4-19,40.8,37.5,34.9,33.5,30.8,27.1,85,77,70,29.79,29.36,9,4,0,0.00
2013-4-20,53.6,39.7,27.3,33.1,28.0,24.9,96,65,40,30.16,29.79,4,0,0,0.00
2013-4-21,60.4,47.4,35.8,41.5,34.4,28.5,76,61,48,30.23,30.04,11,3,0,0.00
2013-4-22,70.9,57.2,42.6,47.6,39.2,34.4,73,53,32,30.08,29.77,7,2,0,0.00
2013-4-23,57.4,45.5,36.9,50.6,43.4,36.6,99,93,72,29.81,29.68,7,1,0,1.00
2013-4-24,53.6,42.7,34.9,37.3,34.0,30.7,99,74,47,29.93,29.75,9,2,0,0.03
2013-4-25,59.7,47.3,38.5,34.1,31.3,27.0,83,56,34,30.08,29.89,9,3,0,0.00
2013-4-26,67.5,54.1,40.8,48.5,41.3,31.4,81,62,49,30.10,30.01,11,4,0,0.00
2013-4-27,66.4,55.4,44.2,51.7,47.6,43.1,99,78,47,30.06,29.74,5,1,0,0.03
2013-4-28,73.6,58.4,51.3,54.9,52.2,50.3,99,82,52,29.73,29.58,6,1,0,0.00
2013-4-29,77.0,63.2,48.6,61.3,54.8,48.1,99,76,56,29.67,29.45,8,3,0,0.00
2013-4-30,88.9,73.5,61.5,62.4,58.7,55.0,91,63,34,29.69,29.49,11,5,0,0.00
2013-5-1,86.9,74.6,62.8,60.6,56.1,51.9,79,55,32,29.85,29.69,6,2,0,0.00
2013-5-2,73.8,62.2,46.6,60.0,53.9,44.6,99,75,62,29.92,29.83,7,1,0,0.12
2013-5-3,59.2,49.9,42.4,58.9,49.6,42.1,99,99,99,29.87,29.59,11,2,0,1.42
2013-5-4,68.2,59.1,53.4,60.9,56.7,53.1,99,92,70,29.79,29.61,6,1,0,0.10
2013-5-5,76.6,61.3,51.3,57.9,52.8,47.0,99,77,37,29.79,29.65,8,1,0,0.01
2013-5-6,81.9,65.8,52.3,54.5,47.5,39.7,92,56,28,29.78,29.68,9,1,0,0.00
2013-5-7,83.7,67.9,50.2,49.5,42.5,29.7,76,43,17,29.81,29.70,6,0,0,0.00
2013-5-8,85.8,70.5,52.2,57.1,50.0,45.5,89,52,27,29.79,29.70,5,0,0,0.00
2013-5-9,73.4,63.7,60.8,63.4,60.1,56.0,99,89,63,29.73,29.55,6,1,0,0.33
2013-5-10,61.7,54.1,49.6,61.4,52.3,47.1,99,93,82,29.75,29.54,6,1,0,0.01
2013-5-11,64.0,53.3,41.2,52.9,40.7,29.6,99,67,34,29.88,29.67,12,2,0,0.00
2013-5-12,62.1,48.6,34.7,33.5,30.9,26.5,85,53,30,29.96,29.86,7,1,0,0.00
2013-5-13,72.5,58.0,38.1,41.2,35.5,29.8,80,47,26,29.97,29.76,5,0,0,0.00
2013-5-14,93.6,74.0,55.6,65.0,55.5,40.5,74,54,39,29.76,29.43,10,2,0,0.00
2013-5-15,88.0,75.5,66.7,63.9,57.8,47.8,76,55,36,29.60,29.47,10,1,0,0.01
2013-5-16,89.4,72.7,57.9,62.8,57.1,48.6,97,61,35,29.69,29.57,4,0,0,0.22
2013-5-17,84.9,72.6,59.7,65.4,61.4,56.8,98,70,43,29.75,29.66,3,0,0,0.14
2013-5-18,87.1,72.7,63.0,68.3,64.8,61.7,99,78,52,29.78,29.65,5,0,0,0.00
2013-5-19,91.9,77.9,63.0,72.8,68.1,62.0,97,73,54,29.69,29.46,9,1,0,0.00
2013-5-20,84.2,73.2,61.7,69.3,63.8,61.0,99,75,52,29.59,29.43,11,3,0,1.49
2013-5-21,83.7,71.5,61.7,65.5,62.7,60.5,97,76,50,29.48,29.39,8,2,0,0.01
2013-5-22,75.2,66.4,59.7,63.7,59.0,55.1,95,78,58,29.56,29.39,5,0,0,0.19
2013-5-23,63.7,57.5,50.5,57.2,53.2,47.0,98,86,68,30.02,29.56,7,2,0,0.09
2013-5-24,71.8,54.7,37.9,46.7,41.4,36.8,97,64,37,30.22,30.03,7,1,0,0.00
2013-5-25,53.2,49.5,46.2,50.9,44.6,34.5,99,84,56,30.18,30.01,7,0,0,0.40
2013-5-26,65.8,55.6,48.6,59.5,53.3,47.5,99,92,78,30.04,29.82,7,2,0,2.55
2013-5-27,71.6,63.0,57.0,66.2,61.4,56.7,99,95,80,29.82,29.56,6,1,0,0.40
2013-5-28,78.1,69.2,64.0,70.5,66.1,62.5,99,91,75,29.64,29.49,11,2,0,0.79
2013-5-29,87.4,74.4,61.0,72.2,67.0,60.7,99,79,58,29.72,29.58,7,2,0,0.49
2013-5-30,85.1,73.6,62.1,72.3,66.9,60.7,99,81,65,29.65,29.49,8,3,0,0.77
2013-5-31,73.8,68.1,61.9,71.3,65.5,61.6,99,92,80,29.63,29.46,6,1,0,0.39
2013-6-1,72.7,66.4,60.8,68.3,63.1,58.5,97,89,77,29.57,29.43,9,2,0,0.14
2013-6-2,66.0,60.4,54.1,59.5,55.6,48.9,96,84,70,29.82,29.55,8,1,0,0.00
2013-6-3,73.2,60.0,46.0,54.4,48.8,45.2,99,70,41,29.91,29.78,4,0,0,0.00
2013-6-4,76.3,64.4,50.0,58.9,52.5,46.1,96,68,46,29.90,29.79,5,0,0,0.00
2013-6-5,82.8,68.8,55.2,64.3,58.2,52.0,90,70,48,29.83,29.64,6,0,0,0.00
2013-6-6,75.7,64.3,56.5,63.5,57.3,52.2,94,79,62,29.67,29.60,5,0,0,0.06
2013-6-7,78.6,65.4,53.6,59.5,53.9,49.0,85,68,51,29.69,29.63,5,1,0,0.00
2013-6-8,82.9,68.3,51.4,58.8,53.1,43.3,79,60,41,29.73,29.68,4,0,0,0.00
2013-6-9,82.8,69.9,60.4,65.4,60.0,55.1,93,72,49,29.72,29.54,7,1,0,0.02
2013-6-10,84.0,69.9,59.4,65.8,62.0,58.3,99,78,50,29.66,29.51,4,0,0,0.00
2013-6-11,88.3,75.0,60.4,74.1,66.9,58.7,95,77,57,29.71,29.56,3,0,0,0.14
2013-6-12,96.3,81.9,69.3,76.2,72.3,67.9,96,74,50,29.65,29.35,8,1,0,0.00
2013-6-13,87.4,75.4,66.2,70.8,60.8,56.1,91,63,41,29.77,29.43,7,2,0,0.00
2013-6-14,81.7,70.6,57.0,61.0,57.4,52.5,85,64,46,29.90,29.73,7,1,0,0.00
2013-6-15,79.2,71.5,65.8,68.8,64.2,56.0,97,78,65,29.81,29.64,7,1,0,0.93
2013-6-16,87.1,73.5,63.7,72.9,67.4,62.8,98,82,62,29.73,29.66,4,0,0,0.00
2013-6-17,92.3,78.7,64.8,73.0,65.2,60.2,99,67,42,29.72,29.64,4,0,0,0.00
2013-6-18,83.5,73.0,63.5,65.2,61.7,55.4,91,69,51,29.81,29.64,10,2,0,0.00
2013-6-19,89.4,72.3,55.9,64.6,57.0,50.3,82,61,36,29.88,29.79,7,1,0,0.00
2013-6-20,97.9,79.8,62.6,71.1,63.8,57.8,91,61,37,29.90,29.79,4,0,0,0.00
2013-6-21,91.4,76.5,67.8,74.5,67.8,63.5,95,75,58,29.89,29.71,8,1,0,0.05
2013-6-22,91.4,78.8,69.4,77.9,70.8,63.3,85,77,61,29.83,29.73,5,1,0,0.00
2013-6-23,91.4,74.1,66.9,74.8,68.2,63.3,96,83,55,29.80,29.68,7,1,0,1.75
2013-6-24,89.2,71.7,64.6,76.7,67.8,63.7,98,89,65,29.89,29.63,4,0,0,5.25
2013-6-25,88.0,77.5,68.4,76.5,71.5,67.1,97,82,68,29.70,29.56,9,2,0,0.67
2013-6-26,91.9,76.7,66.7,77.8,71.4,64.8,96,85,63,29.59,29.47,5,0,0,0.31
2013-6-27,92.7,80.4,70.2,75.4,72.0,66.6,97,77,53,29.61,29.51,4,0,0,0.00
2013-6-28,89.6,76.6,65.8,68.5,64.7,61.9,92,69,42,29.56,29.41,8,1,0,0.00
2013-6-29,77.4,67.3,62.2,67.7,62.9,59.0,94,86,71,29.53,29.38,7,1,0,0.58
2013-6-30,83.1,69.7,59.4,65.8,59.7,49.9,90,72,53,29.74,29.53,10,2,0,0.00
2013-7-1,80.6,69.7,58.6,57.7,52.9,49.2,77,56,40,29.80,29.72,10,2,0,0.00
2013-7-2,80.2,67.6,59.0,59.0,55.7,52.1,84,67,42,29.82,29.76,12,2,0,0.00
2013-7-3,82.6,68.2,57.0,60.4,55.8,52.3,91,67,37,29.84,29.77,3,0,0,0.00
2013-7-4,90.3,75.6,62.6,66.3,62.1,54.7,88,65,42,29.85,29.76,4,0,0,0.00
2013-7-5,93.2,77.2,64.2,70.9,64.1,60.5,93,66,37,29.84,29.77,6,0,0,0.00
2013-7-6,80.6,69.2,65.1,69.0,64.2,62.0,94,84,68,29.82,29.79,0,0,0,0.00
2013-7-8,84.6,79.3,75.2,75.4,73.8,72.6,92,84,74,29.77,29.74,0,0,0,0.00
2013-7-9,93.4,82.1,75.0,80.0,75.6,72.5,93,81,63,29.77,29.64,4,1,0,0.00
2013-7-10,91.8,81.2,69.4,75.4,70.1,59.0,87,70,52,29.79,29.60,5,1,0,0.00
2013-7-11,86.7,72.5,61.0,65.8,60.2,56.1,94,68,41,29.86,29.79,8,1,0,0.00
2013-7-12,87.4,72.6,58.3,63.7,58.0,53.8,95,63,38,29.92,29.82,3,0,0,0.00
2013-7-13,89.1,75.3,60.6,66.0,62.0,55.8,92,66,41,29.91,29.82,5,0,0,0.00
2013-7-14,95.0,80.4,65.1,71.8,68.5,62.6,92,69,47,29.95,29.87,6,0,0,0.00
2013-7-15,93.6,80.5,70.9,78.8,73.0,68.8,93,79,57,30.02,29.93,4,0,0,0.06
2013-7-16,96.8,83.1,72.3,77.4,73.6,70.5,95,75,53,30.08,30.00,4,0,0,0.00
2013-7-17,98.8,85.4,72.3,79.9,74.0,69.5,92,70,50,30.10,29.95,1,0,0,0.00
2013-7-18,98.1,86.3,75.2,77.8,74.2,71.2,88,69,50,29.97,29.75,4,0,0,0.00
2013-7-19,97.7,87.0,77.2,76.1,73.1,71.1,82,65,45,29.75,29.57,6,1,0,0.00
2013-7-20,91.9,80.2,70.5,72.2,67.9,64.1,88,68,44,29.69,29.59,5,1,0,0.00
2013-7-21,83.5,75.4,67.3,74.0,69.2,63.2,91,82,68,29.71,29.60,4,0,0,0.05
2013-7-22,93.4,78.9,66.0,73.3,69.6,64.1,94,75,52,29.63,29.51,5,0,0,0.08
2013-7-23,84.0,72.3,64.8,71.6,64.7,59.2,94,78,58,29.72,29.52,5,0,0,0.02
2013-7-24,79.7,68.1,57.6,59.2,56.0,53.9,91,67,43,29.82,29.72,7,1,0,0.00
2013-7-25,89.6,71.8,54.1,62.1,56.9,49.9,88,62,38,29.88,29.80,4,0,0,0.00
2013-7-26,73.0,66.5,59.2,67.5,61.8,57.5,94,85,73,29.82,29.67,6,0,0,0.59
2013-7-27,75.9,61.9,55.2,58.5,53.6,48.7,96,76,45,29.74,29.69,5,1,0,0.01
2013-7-28,84.0,63.8,52.2,57.1,52.2,46.9,86,68,39,29.83,29.69,4,1,0,0.00
2013-7-29,91.2,67.6,52.7,60.0,54.7,50.3,92,67,35,29.93,29.83,3,0,0,0.00
2013-7-30,67.3,65.5,62.4,65.3,62.0,56.7,95,89,71,29.92,29.80,5,0,0,0.81
2013-7-31,78.8,70.1,66.4,69.2,66.5,64.0,96,89,71,29.80,29.76,0,0,0,0.01
2013-8-1,95.4,75.2,62.2,67.1,62.7,60.0,95,69,35,29.81,29.71,3,0,0,0.00
2013-8-2,93.6,77.4,68.9,71.9,67.1,61.5,93,72,47,29.73,29.62,5,2,0,0.89
2013-8-3,92.8,73.3,62.6,66.4,61.3,55.8,93,69,36,29.89,29.72,5,0,0,0.00
2013-8-4,94.5,72.2,59.2,60.9,56.9,51.9,84,62,27,29.95,29.86,4,0,0,0.00
2013-8-5,79.0,70.0,61.2,68.1,62.7,57.0,90,78,58,29.87,29.63,4,0,0,0.20
2013-8-6,100.4,77.8,66.6,76.1,69.6,64.2,93,78,44,29.67,29.56,4,0,0,0.00
2013-8-7,96.6,79.9,70.2,78.4,71.6,64.8,90,77,51,29.70,29.56,5,0,0,0.00
2013-8-8,87.1,74.1,64.9,69.0,65.2,60.3,90,75,55,29.76,29.69,8,1,0,0.00
2013-8-9,90.3,74.9,59.7,68.3,62.7,55.4,88,67,45,29.82,29.75,0,0,0,0.00
2013-8-10,90.5,73.0,61.2,66.5,60.5,55.4,90,67,39,29.91,29.82,5,0,0,0.00
2013-8-11,93.6,73.4,58.3,66.8,60.7,53.8,89,67,40,29.92,29.81,3,0,0,0.00
2013-8-12,88.5,75.3,67.1,72.5,66.6,61.6,88,75,58,29.82,29.65,4,0,0,0.00
2013-8-13,83.3,66.9,55.0,62.3,55.5,50.0,89,69,35,29.92,29.71,9,1,0,0.00
2013-8-14,83.5,63.3,50.9,55.8,52.0,48.4,93,70,34,29.99,29.91,4,0,0,0.00
2013-8-15,86.7,66.8,55.4,57.9,53.9,50.3,84,66,35,29.96,29.87,2,0,0,0.00
2013-8-16,93.6,70.1,56.5,60.8,57.1,52.5,90,66,30,29.95,29.89,5,1,0,0.00
2013-8-17,85.5,69.1,57.6,61.2,58.4,55.6,95,72,42,30.00,29.91,6,1,0,0.00
2013-8-18,94.3,71.2,57.7,62.1,58.4,54.5,89,67,32,29.98,29.86,3,0,0,0.00
2013-8-19,96.1,75.2,62.2,67.8,63.0,56.7,88,68,37,29.90,29.79,4,0,0,0.00
2013-8-20,93.7,77.5,66.6,68.8,65.6,61.6,84,69,42,29.88,29.79,5,0,0,0.00
2013-8-21,96.6,79.6,69.4,69.7,67.1,64.2,84,67,40,29.87,29.76,5,1,0,0.00
2013-8-22,82.9,74.7,69.3,72.9,68.0,65.6,90,80,69,29.89,29.78,7,1,0,0.20
2013-8-23,91.8,73.6,65.7,69.1,65.3,59.5,94,77,40,29.93,29.85,6,1,0,0.00
2013-8-24,97.9,76.0,60.4,70.3,64.7,57.2,90,70,40,30.01,29.91,4,0,0,0.00
2013-8-25,97.3,79.4,68.7,70.2,66.2,61.8,81,66,40,30.03,29.92,6,0,0,0.00
2013-8-26,99.3,81.8,69.3,74.7,69.7,63.3,83,68,43,29.94,29.76,5,0,0,0.00
2013-8-27,102.7,83.8,74.3,75.0,70.9,65.2,85,67,41,29.79,29.65,5,1,0,0.00
2013-8-28,105.1,84.5,74.8,79.5,71.8,64.4,87,67,44,29.77,29.65,6,0,0,0.00
2013-8-29,94.8,76.8,69.3,75.5,70.4,66.7,93,81,54,29.83,29.73,5,0,0,0.00
2013-8-30,108.9,84.1,70.7,76.9,71.3,64.7,90,69,33,29.74,29.54,8,1,0,0.00
2013-8-31,97.0,79.9,69.4,78.8,69.7,62.6,90,72,55,29.59,29.50,5,0,0,0.00
2013-9-1,101.8,77.5,65.5,74.5,68.0,62.2,94,75,38,29.61,29.50,8,0,0,0.00
2013-9-2,89.1,71.1,60.8,65.7,60.2,55.4,90,70,41,29.76,29.60,6,0,0,0.00
2013-9-3,90.9,67.1,53.2,60.7,56.6,50.6,92,72,36,29.87,29.76,4,0,0,0.00
2013-9-4,97.7,71.8,57.6,61.0,57.6,55.0,91,65,27,29.93,29.82,4,0,0,0.00
2013-9-5,96.4,75.3,64.6,70.4,62.9,57.0,80,67,42,29.98,29.89,6,1,0,0.00
2013-9-6,98.8,74.4,59.2,67.9,60.6,52.7,82,64,37,29.97,29.79,5,0,0,0.00
2013-9-7,91.8,77.8,67.1,69.6,65.4,61.1,81,67,47,29.79,29.66,8,1,0,0.00
2013-9-8,93.4,78.1,70.2,73.9,69.1,66.0,90,75,52,29.76,29.65,6,1,0,0.26
2013-9-9,103.8,83.1,71.4,75.1,71.7,67.3,91,71,40,29.70,29.60,5,1,0,0.00
2013-9-10,99.7,84.7,73.8,71.5,67.9,65.0,74,59,37,29.81,29.69,8,2,0,0.00
2013-9-11,99.9,81.2,70.9,71.7,67.9,64.9,91,66,40,29.85,29.77,3,1,0,0.05
2013-9-12,90.1,72.5,59.5,68.8,59.8,48.8,94,69,26,29.86,29.76,4,1,0,0.17
2013-9-13,78.8,60.4,52.5,50.4,44.7,37.1,85,59,26,29.97,29.85,8,1,0,0.00
2013-9-14,84.2,60.0,44.8,47.7,45.0,41.9,94,62,27,29.97,29.79,4,0,0,0.00
2013-9-15,66.6,60.7,54.9,59.6,52.6,44.9,92,75,61,29.92,29.73,7,2,0,0.12
2013-9-16,76.8,60.1,52.2,55.0,52.0,46.5,93,76,45,30.10,29.92,8,2,0,0.00
2013-9-17,79.2,62.1,48.4,59.2,53.1,46.4,93,74,49,30.08,29.84,7,1,0,0.00
2013-9-18,90.1,74.4,62.4,71.2,64.0,54.9,82,71,53,29.84,29.65,6,2,0,0.00
2013-9-19,93.6,79.5,66.9,73.3,68.8,63.9,91,71,50,29.71,29.53,8,3,0,0.38
2013-9-20,74.1,66.6,54.5,67.1,60.4,50.8,94,82,55,29.66,29.57,6,1,0,0.19
2013-9-21,80.2,59.2,49.5,52.7,49.4,47.3,92,73,36,29.71,29.62,6,1,0,0.00
2013-9-22,81.3,58.8,46.0,51.0,48.0,43.7,94,70,34,29.82,29.71,5,1,0,0.00
2013-9-23,84.0,60.5,46.6,51.4,47.6,43.5,89,66,31,29.85,29.72,5,1,0,0.00
2013-9-24,77.4,62.5,48.7,57.3,51.8,45.9,91,70,45,29.76,29.62,7,1,0,0.00
2013-9-25,88.5,65.0,53.2,60.7,53.9,48.8,85,69,38,29.70,29.62,6,1,0,0.00
2013-9-26,91.9,66.5,52.7,61.2,54.5,48.7,93,68,34,29.81,29.69,5,0,0,0.00
2013-9-27,92.1,68.8,53.8,58.8,52.6,49.4,88,60,27,29.90,29.76,4,0,0,0.00
2013-9-28,82.6,69.4,59.2,66.0,59.7,53.6,92,72,53,29.79,29.64,8,1,0,0.80
2013-9-29,75.6,58.5,50.5,57.2,49.3,44.8,96,75,34,29.85,29.75,4,1,0,0.00
2013-9-30,81.3,62.2,48.6,59.1,51.9,46.2,95,72,38,29.76,29.61,5,0,0,0.00
2013-10-1,82.6,69.1,61.5,68.0,63.2,58.7,93,82,60,29.75,29.65,6,2,0,0.00
2013-10-2,87.3,70.6,64.0,69.7,65.2,62.5,95,84,55,29.84,29.72,5,1,0,0.00
2013-10-3,82.9,70.4,63.9,71.8,66.3,61.2,95,87,66,29.72,29.57,6,1,0,0.84
2013-10-4,90.7,74.7,66.9,73.8,67.9,63.0,94,80,56,29.72,29.64,6,1,0,0.00
2013-10-5,77.4,70.5,57.0,70.7,65.4,53.5,91,84,73,29.68,29.53,6,1,0,0.01
2013-10-6,56.5,50.0,45.3,52.1,43.7,40.2,93,80,60,29.60,29.52,7,1,0,0.00
2013-10-7,76.5,56.1,43.5,49.4,46.5,41.6,94,73,37,29.85,29.58,3,0,0,0.00
2013-10-8,81.5,61.9,49.1,52.7,48.5,45.7,88,64,35,29.96,29.85,4,0,0,0.00
2013-10-9,79.3,59.6,46.0,51.4,47.7,43.3,94,67,34,29.99,29.86,2,0,0,0.00
2013-10-10,83.3,62.4,50.4,60.1,53.4,46.1,93,74,45,29.93,29.77,3,0,0,0.00
2013-10-11,82.8,66.7,56.1,60.5,56.2,52.9,90,70,43,29.80,29.64,6,1,0,0.00
2013-10-12,78.3,63.5,52.2,62.0,53.6,40.5,91,72,38,29.96,29.68,3,0,0,0.15
2013-10-13,73.0,54.0,44.8,44.9,37.5,31.7,80,57,23,30.17,29.97,6,0,0,0.00
2013-10-14,70.5,52.2,38.8,45.8,40.4,36.5,95,67,36,30.16,29.84,5,0,0,0.00
2013-10-15,72.1,59.5,47.5,60.8,51.7,41.6,91,76,62,29.84,29.55,8,2,0,0.00
2013-10-16,54.3,50.2,45.5,45.6,43.2,40.0,81,77,71,29.75,29.66,6,1,0,0.00
2013-10-17,61.7,50.4,45.7,46.3,42.6,38.2,93,76,43,29.73,29.60,4,0,0,0.09
2013-10-18,56.1,46.9,40.3,41.3,39.7,37.9,92,77,55,29.78,29.63,4,0,0,0.00
2013-10-19,55.9,46.3,37.6,39.7,37.5,35.2,91,73,50,29.75,29.60,8,2,0,0.00
2013-10-20,70.0,53.4,40.6,47.1,41.7,37.0,87,67,40,29.64,29.49,7,1,0,0.00
2013-10-21,55.6,44.5,32.9,47.2,33.8,25.1,84,67,38,29.79,29.60,6,1,0,0.00
2013-10-22,40.5,36.0,31.6,38.4,32.6,26.2,95,87,75,29.79,29.61,9,1,0,0.58
2013-10-23,45.5,37.7,30.9,34.8,31.9,29.4,95,80,58,29.85,29.73,4,0,0,0.00
2013-10-24,43.2,36.1,29.8,34.0,28.0,24.7,92,73,51,30.14,29.84,4,0,0,0.01
2013-10-25,57.4,39.6,27.5,34.6,27.6,23.9,88,65,36,30.22,29.88,7,1,0,0.00
2013-10-26,57.6,44.6,35.8,37.9,32.1,28.3,79,62,40,29.89,29.71,7,2,0,0.00
2013-10-27,59.4,42.5,30.2,34.4,30.9,26.4,87,66,39,29.88,29.74,5,0,0,0.00
2013-10-28,64.6,46.4,35.1,40.5,34.2,29.7,84,64,34,30.09,29.83,7,0,0,0.00
2013-10-29,55.9,45.3,36.9,49.0,41.1,35.3,94,86,64,30.09,29.87,6,1,0,0.00
2013-10-30,63.5,56.8,50.9,62.3,55.4,49.2,96,95,94,29.87,29.52,5,1,0,1.11
2013-10-31,63.5,56.6,43.3,62.0,55.0,41.7,95,94,92,29.51,29.05,8,2,0,1.27
2013-11-1,53.1,46.1,41.4,44.9,42.8,39.9,95,89,72,29.55,29.27,7,1,0,0.01
2013-11-2,52.3,41.7,33.8,40.4,36.7,30.9,96,84,59,29.94,29.55,12,1,0,0.01
2013-11-3,54.0,41.0,29.8,38.2,34.3,28.0,97,78,52,30.07,29.92,7,1,0,0.00
2013-11-4,57.7,50.6,43.9,45.8,41.7,36.8,79,72,60,29.97,29.84,10,2,0,0.00
2013-11-5,54.7,52.3,50.9,51.2,48.7,45.5,93,88,78,30.02,29.71,7,2,0,0.19
2013-11-6,56.1,44.8,31.8,54.7,42.5,28.9,95,91,85,30.00,29.60,9,2,0,0.48
2013-11-7,48.0,35.4,28.2,38.2,30.8,26.4,93,84,66,30.09,29.99,6,1,0,0.00
2013-11-8,49.1,45.4,31.3,36.7,32.6,28.4,92,62,47,30.09,29.73,9,3,0,0.00
2013-11-9,64.6,50.3,41.5,42.3,39.0,35.5,79,66,43,29.97,29.69,11,3,0,0.00
2013-11-10,54.5,40.2,31.1,35.0,31.2,27.0,85,71,44,30.19,29.98,5,1,0,0.00
2013-11-11,51.3,39.2,22.1,38.7,31.9,18.8,94,76,61,30.33,29.89,7,2,0,0.05
2013-11-12,33.8,22.7,16.7,22.7,17.8,14.0,90,82,61,30.55,30.34,5,1,0,0.02
2013-11-13,42.3,29.5,17.2,21.9,18.0,14.0,88,64,37,30.43,29.98,9,4,0,0.03
2013-11-14,52.3,40.3,29.8,28.4,23.9,20.2,68,53,35,29.98,29.74,14,5,0,0.00
2013-11-15,48.0,42.3,37.4,39.3,33.3,27.8,86,70,58,29.78,29.67,7,3,0,0.00
2013-11-16,59.0,53.0,42.3,55.4,49.8,38.4,91,89,86,29.67,29.33,12,5,0,0.04
2013-11-17,68.2,55.4,42.4,62.8,51.0,39.0,92,85,74,29.63,28.95,12,4,0,1.35
2013-11-18,47.3,39.2,29.1,39.0,32.9,26.5,91,79,55,30.07,29.64,10,2,0,0.00
2013-11-19,46.0,34.6,26.6,30.2,27.5,24.1,92,76,52,30.15,30.02,6,1,0,0.00
2013-11-20,42.4,37.2,33.1,37.4,32.4,28.1,92,83,69,30.04,29.83,7,2,0,0.18
2013-11-21,49.5,45.1,41.0,45.6,41.8,37.4,94,88,81,30.01,29.85,6,0,0,0.18
2013-11-22,40.8,34.3,23.9,39.2,31.3,21.4,94,89,77,30.31,30.01,7,2,0,0.05
2013-11-23,24.8,20.1,11.8,21.3,13.8,6.0,93,77,55,30.55,30.29,10,2,0,0.00
2013-11-24,29.8,17.4,7.0,12.8,6.9,-4.1,90,66,24,30.57,30.19,8,1,0,0.00
2013-11-25,32.5,28.0,21.2,24.7,19.5,12.1,82,70,62,30.18,29.90,11,4,0,0.00
2013-11-26,35.8,26.9,15.1,27.9,19.7,8.3,87,74,63,30.03,29.85,8,3,0,0.00
2013-11-27,28.8,18.6,10.9,12.8,9.6,6.0,82,68,49,30.11,30.01,8,2,0,0.00
2013-11-28,38.8,26.4,18.3,22.2,16.5,10.9,88,67,51,30.30,29.96,8,2,0,0.00
2013-11-29,37.8,26.7,15.8,24.4,19.4,13.9,93,75,53,30.42,30.16,5,1,0,0.00
2013-11-30,52.2,39.8,31.6,35.7,31.5,24.3,86,73,52,30.15,29.84,10,3,0,0.00
2013-12-1,45.9,37.8,30.4,33.7,31.3,28.1,92,78,60,29.90,29.73,4,0,0,0.00
2013-12-2,43.9,37.7,31.1,37.6,33.7,29.3,93,86,71,29.74,29.45,4,1,0,0.00
2013-12-3,50.9,44.2,37.2,48.5,42.7,35.9,96,94,90,29.46,29.38,5,1,0,0.00
2013-12-4,54.1,47.5,33.1,52.9,45.6,29.7,96,93,86,29.57,29.25,7,2,0,0.00
2013-12-5,32.5,22.8,18.5,29.1,16.3,11.7,87,76,67,30.09,29.57,7,3,0,0.00
2013-12-6,19.0,14.9,9.0,12.3,9.0,5.7,86,77,64,30.39,30.07,9,2,0,0.00
2013-12-7,20.7,11.0,3.7,7.8,4.9,1.7,91,77,49,30.53,30.34,6,1,0,0.00
2013-12-8,23.2,19.1,11.7,21.7,16.2,7.0,94,88,80,30.33,29.77,12,3,0,0.00
2013-12-9,22.6,14.9,2.5,20.9,10.1,-1.5,93,81,68,30.08,29.78,10,2,0,0.00
2013-12-10,27.1,15.1,3.0,14.8,7.5,-1.0,86,72,52,30.10,29.86,11,2,0,0.00
2013-12-11,22.5,13.7,1.2,17.0,6.7,-4.3,89,73,52,30.42,30.04,9,2,0,0.00
2013-12-12,30.0,15.8,0.0,18.2,8.0,-4.4,84,71,59,30.40,30.00,8,2,0,0.00
2013-12-13,38.5,28.4,20.1,29.1,23.0,15.3,95,80,62,30.00,29.80,5,1,0,0.01
2013-12-14,32.5,27.0,16.2,29.9,25.2,14.3,95,93,88,29.85,29.69,0,0,0,0.00
2013-12-15,21.2,14.8,9.1,14.9,11.5,6.8,92,87,74,29.91,29.83,2,0,0,0.01
2013-12-16,22.1,16.9,12.2,18.2,14.3,10.1,94,89,81,29.91,29.79,6,1,0,0.00
2013-12-17,36.7,25.6,19.6,31.0,21.9,15.8,94,86,69,29.98,29.82,5,1,0,0.05
2013-12-18,39.6,28.6,16.0,31.9,21.0,13.1,89,74,39,29.99,29.62,14,4,0,0.02
2013-12-19,47.5,40.9,36.0,41.9,37.2,31.5,95,87,77,29.67,29.52,9,4,0,0.04
2013-12-20,45.7,35.5,28.9,44.6,34.5,27.9,97,96,95,29.62,29.49,9,2,0,0.15
2013-12-21,31.8,29.1,27.1,30.8,27.9,25.9,96,95,93,29.64,29.36,6,1,0,0.03
2013-12-22,31.8,28.0,18.3,31.0,26.3,16.1,97,94,90,30.00,29.37,4,1,0,0.00
2013-12-23,18.0,9.4,0.9,15.8,5.9,-3.3,92,86,78,30.33,30.01,7,1,0,0.00
2013-12-24,18.7,7.3,-4.5,13.3,2.9,-7.6,86,82,75,30.39,30.12,3,0,0,0.00
2013-12-25,27.7,24.1,18.7,25.2,20.8,13.0,91,87,77,30.11,29.94,6,2,0,0.00
2013-12-26,36.7,28.8,17.2,30.8,24.0,15.0,93,82,71,30.11,29.94,9,3,0,0.02
2013-12-27,45.7,35.0,26.8,34.4,29.7,25.6,95,82,62,30.09,29.90,8,3,0,0.02
2013-12-28,53.8,42.2,34.9,37.6,32.8,30.0,83,70,50,29.91,29.62,9,5,0,0.00
2013-12-29,38.1,23.6,3.6,30.6,19.3,-1.4,92,84,73,30.05,29.57,9,4,0,0.00
2013-12-30,17.4,6.9,-2.6,10.0,1.5,-6.8,91,79,54,30.14,29.96,5,1,0,0.00
2013-12-31,22.5,14.2,5.9,13.7,10.3,4.1,92,84,65,30.17,29.98,9,2,0,0.00
2014-1-1,22.3,18.1,13.3,19.1,15.7,11.4,92,90,87,30.00,29.91,11,5,0,0.00
2014-1-2,16.9,10.3,0.9,12.8,7.8,-1.1,92,90,80,30.23,29.92,10,3,0,0.00